Malahat, British Columbia

2:08 PM PDT on October 19, 2017 (GMT -0700)
Malahat

Weather History for CWKH - September, 2012

Change the Weather History Date:

Thursday, September 20, 2012

  Actual Average Record
Temperature  
Mean Temperature 68 °F -  
Max Temperature 76 °F - - ()
Min Temperature 60 °F - - ()
Cooling Degree Days 3    
Growing Degree Days 18 (Base 50)    
Moisture  
Dew Point 47 °F    
Average Humidity 50    
Maximum Humidity 63    
Minimum Humidity 23    
Precipitation  
Precipitation 0.00 in - - ()
Sea Level Pressure  
Sea Level Pressure 30.03 in    
Wind  
Wind Speed - ()    
Max Wind Speed -    
Max Gust Speed -    
T = Trace of Precipitation, MM = Missing Value Source: Averaged Metar Reports

Daily Weather History Graph

Daily Weather History Graph

Search for Another Location

Airport or City:

Trip Planner

Search our weather history database for the weather conditions in past years. The results will help you decide how hot, cold, wet, or windy it might be!

Date:

Astronomy

Sep. 20, 2012 Rise Set
Actual Time 6:58 AM PDT 7:15 PM PDT
Civil Twilight 6:27 AM PDT 7:46 PM PDT
Nautical Twilight 5:50 AM PDT 8:23 PM PDT
Astronomical Twilight 5:11 AM PDT 9:01 PM PDT
Moon 12:52 PM PDT (9/20) 9:52 PM PDT (9/20)
Length of Visible Light 13h 18m
Length of Day
12h 16m
Waxing Crescent, 28% of the Moon is Illuminated
Sep 20
Waxing Crescent
Sep 22
First Quarter
Sep 29
Full
Oct 8
Last Quarter
Oct 15
New

Hourly Weather History & Observations

Time (PDT) Temp. Dew Point Humidity Pressure Visibility Wind Dir Wind Speed Gust Speed Precip Events Conditions
12:00 AM 62.6 °F 47.7 °F 58% 30.07 in - North - - N/A   Unknown
1:00 AM 63.3 °F 46.8 °F 55% 30.07 in - North - - N/A   Unknown
2:00 AM 61.0 °F 47.1 °F 60% 30.07 in - North - - N/A   Unknown
3:00 AM 61.9 °F 48.0 °F 60% 30.06 in - North - - N/A   Unknown
4:00 AM 60.8 °F 47.3 °F 61% 30.06 in - North - - N/A   Unknown
5:00 AM 61.7 °F 47.3 °F 59% 30.06 in - North - - N/A   Unknown
6:00 AM 60.1 °F 47.5 °F 63% 30.06 in - North - - N/A   Unknown
7:00 AM 61.7 °F 47.1 °F 59% 30.05 in - North - - N/A   Unknown
8:00 AM 61.3 °F 47.1 °F 60% 30.06 in - North - - N/A   Unknown
9:00 AM 63.9 °F 48.4 °F 57% 30.06 in - North - - N/A   Unknown
10:00 AM 64.8 °F 47.7 °F 54% 30.06 in - North - - N/A   Unknown
11:00 AM 65 °F 49 °F 45% 30.06 in - Calm Calm - -  
11:00 AM 65.5 °F 48.6 °F 54% 30.06 in - North - - N/A   Unknown
12:00 PM 67.1 °F 48.6 °F 51% 30.06 in - North - - N/A   Unknown
1:00 PM 70.0 °F 49.6 °F 48% 30.05 in - North - - N/A   Unknown
2:00 PM 73.0 °F 48.6 °F 42% 30.04 in - North - - N/A   Unknown
3:00 PM 76.3 °F 45.1 °F 33% 30.02 in - North - - N/A   Unknown
4:00 PM 76.6 °F 44.8 °F 32% 30.01 in - North - - N/A   Unknown
5:00 PM 74 °F 44 °F 23% 29.99 in - Calm Calm - -  
5:00 PM 73.6 °F 43.5 °F 34% 29.99 in - North - - N/A   Unknown
6:00 PM 72.1 °F 49.1 °F 44% 29.98 in - North - - N/A   Unknown
7:00 PM 68.2 °F 49.6 °F 51% 29.98 in - North - - N/A   Unknown
8:00 PM 67.5 °F 46.4 °F 47% 29.98 in - North - - N/A   Unknown
9:00 PM 66.2 °F 44.2 °F 45% 29.99 in - North - - N/A   Unknown
10:00 PM 64.4 °F 45.7 °F 51% 30.01 in - North - - N/A   Unknown
11:00 PM 63 °F 47 °F 46% 30.01 in - Calm Calm - -  
11:00 PM 62.6 °F 47.5 °F 58% 30.01 in - North - - N/A   Unknown